Flag for Chile Weather past 2 weeks in Talcahuano, Chile

Now
59 °F

Clear.


Feels Like: 59 °F
Forecast: 55 / 67 °F
Wind: No wind

Location: Concepcion Airport

Current Time: Mar 27, 2015 at 11:45:45 PM

Latest Report: Mar 27, 2015 at 11:00 PM


Visibility: 10 mi

Pressure: 30.09 "Hg

Humidity: 82%

Dew point: 54 °F

Location of TalcahuanoLocation

Historic Weather in Talcahuano — Graph

°F

Talcahuano temperature yesterday

Maximum temperature yesterday: 72 °F (at 4:00 PM)
Minimum temperature yesterday: 57 °F (at 5:00 AM)
Average temperature yesterday: 63 °F

Past Weeks' High & Low Weather Summary

 TemperatureHumidityPressure
High82 °F (Mar 20, 3:00 PM)100% (Mar 17, 6:00 AM)30.09 "Hg (Mar 17, 6:00 AM)
Low36 °F (Mar 22, 2:00 PM)30% (Mar 21, 5:00 PM)29.86 "Hg (Mar 15, 4:00 PM)
Average63 °F73%29.98 "Hg
* Reported Mar 12 11:00 PM — Mar 27 11:00 PM, Talcahuano, Weather by CustomWeather, © 2015

Note: Actual official high and low records may vary slightly from our data, if they occured in-between our weather recording intervals... More about our weather records

Advertising

Talcahuano weather history for previous 24 hours

 ConditionsComfort  
Time TempWeatherWind HumidityBarometerVisibility
11:00 PM
Fri, Mar 27
59 °FClear.No wind82%30.09 "Hg10 mi
10:00 PM59 °FClear.3 mph82%30.09 "Hg10 mi
9:00 PM61 °FClear.2 mph77%30.07 "Hg10 mi
8:00 PM63 °FClear.6 mph73%30.07 "Hg10 mi
7:00 PM66 °FClear.8 mph64%30.07 "Hg10 mi
6:00 PM68 °FPassing clouds.8 mph60%30.04 "HgN/A
5:00 PM70 °FSunny.10 mph50%30.07 "Hg10 mi
4:00 PM72 °FPassing clouds.8 mph57%30.07 "HgN/A
3:00 PM70 °FPassing clouds.8 mph60%30.07 "HgN/A
2:00 PM68 °FPassing clouds.10 mph60%30.09 "HgN/A
1:00 PM68 °FSunny.10 mph64%30.09 "Hg10 mi
12:00 PM70 °FPassing clouds.5 mph57%30.07 "HgN/A
11:00 AM66 °FSunny.2 mph64%30.07 "Hg10 mi
10:00 AM57 °FSunny.2 mph82%30.07 "Hg10 mi
9:00 AM52 °FSunny.No wind100%30.07 "Hg10 mi
8:00 AM52 °FSunny.1 mph94%30.04 "Hg10 mi
7:00 AM52 °FClear.3 mph94%30.04 "Hg10 mi
6:00 AMN/A2 mphN/AN/AN/A
5:00 AM54 °FFog.1 mph94%30.04 "Hg5 mi
4:00 AM55 °FFog.2 mph100%30.04 "Hg1 mi
3:00 AM57 °FFog.1 mph100%30.04 "Hg1 mi
2:00 AM59 °FFog.1 mph94%30.04 "Hg1 mi
1:00 AM59 °FFog.5 mphN/AN/A1 mi
12:00 AM59 °FFog.No wind100%30.07 "Hg1 mi
11:00 PM
Thu, Mar 26
61 °FClear.2 mph94%30.07 "Hg10 mi
Weather by CustomWeather, © 2015

See weather overviewHow to use our weather pages